Location: Boiro
(42.6475°N, 8.8834°W)
Time: 19:08:06
(UTC+01:00)

Altair - Pass Details

Date: 06 December 2021
Orbit: 1501 x 1683 km, 47.2° (Epoch: 25 January)

Event Time Altitude Azimuth Distance (km) Brightness Sun altitude
Rises 15:23:49 0° 213° (SSW) 4,831 11.8 19.4°
Reaches altitude 10° 15:27:08 10° 208° (SSW) 3,822 12.1 19.1°
Maximum altitude 15:36:10 46° 139° (SE) 2,008 8.6 18.3°
Drops below altitude 10° 15:44:55 10° 70° (ENE) 3,704 9.1 17.4°
Sets 15:48:03 0° 64° (ENE) 4,671 9.5 17.1°
